Skip Page Navigation
NASA JPL Caltech
NASA Logo - Jet Propulsion Laboratory + View the NASA Portal
+ Center for Near-Earth Object Studies
JPL Home Earth Solar System Stars & Galaxies Technology
JPL Solar System Dynamics
BODIES ORBITS EPHEMERIDES TOOLS PHYSICAL DATA DISCOVERY FAQ SITE MAP
JPL Small-Body Database Browser
Search: [ help ]  
213587 (2002 NV64)
Classification: Main-belt Asteroid          SPK-ID: 2213587
Ephemeris | Orbit Diagram | Orbital Elements | Mission Design | Physical Parameters | Discovery Circumstances ]

[ show orbit diagram ]
Orbital Elements at Epoch 2459200.5 (2020-Dec-17.0) TDB
Reference: JPL 8 (heliocentric ecliptic J2000)
 Element Value Uncertainty (1-sigma)   Units 
e .210831810338725 5.345e-08  
a 2.388496128595386 1.1505e-08 au
q 1.884925165816585 1.2928e-07 au
i 1.867441101793321 9.2691e-06 deg
node 352.4391628062181 0.0001469 deg
peri 307.0694068898858 0.00015095 deg
M 353.9757148631392 2.9e-05 deg
tp 2459223.062553966024
(2021-Jan-08.56255397)
0.00010864 TDB
period 1348.29597923071
3.69
9.7414e-06
2.667e-08
d
yr
n .2670036887638004 1.9291e-09 deg/d
Q 2.892067091374187 1.393e-08 au
  Orbit Determination Parameters
   # obs. used (total)      155  
   data-arc span      9031 days (24.73 yr)  
   first obs. used      1995-10-02  
   last obs. used      2020-06-23  
   planetary ephem.      DE441  
   SB-pert. ephem.      SB441-N16  
   condition code      0  
   norm. resid. RMS      .52767  
   source      ORB  
   producer      Otto Matic  
   solution date      2021-Apr-13 23:43:17  

Additional Information
 Earth MOID = .868036 au 
 Jupiter MOID = 2.3335 au 
 T_jup = 3.502 
[ show covariance matrix ]

Ephemeris | Orbit Diagram | Orbital Elements | Mission Design | Physical Parameters | Discovery Circumstances ]

Physical Parameter Table
Parameter Symbol Value Units Sigma Reference Notes
absolute magnitude H 18.01   n/a E2021B55  

213587 (2002 NV64)          Discovered 2002-Jul-02 by NEAT at Palomar
Reference: 20090509/Numbers.arcLast Updated: 2009-05-11
Ephemeris | Orbit Diagram | Orbital Elements | Mission Design | Physical Parameters | Discovery Circumstances ]
ABOUT SSD CREDITS/AWARDS PRIVACY/COPYRIGHT GLOSSARY LINKS
FirstGov 2021-May-07 22:50 UT
(server date/time)  
NASA Home Page
Site Manager:   Ryan S. Park
Webmaster  Alan B. Chamberlin